Location: *
(60.1759°S, 155.0663°W)
Time: 20:32:45
(UTC+00:00)

Radarsat Rocket - Pass Details

Date: 17 September 2019
Orbit: 933 x 1492 km, 100.6° (Epoch: 21 October)

Event Time Altitude Azimuth Distance (km) Brightness Sun altitude
Rises 15:15:37 0° 4° (N) 3,796 7.0 -9.2°
Reaches altitude 10° 15:18:16 10° 359° (N) 2,792 6.3 -8.9°
Maximum altitude 15:24:15 51° 283° (WNW) 1,208 4.2 -8.2°
Drops below altitude 10° 15:30:00 10° 207° (SSW) 2,686 6.1 -7.5°
Sets 15:32:30 0° 202° (SSW) 3,640 6.9 -7.2°
